Location: Beuerbach
(48.1459°N, 10.9174°E)
Time: 23:47:12
(UTC+00:00)

Meteor 1-21 - Pass Details

Date: 11 August 2024
Orbit: 845 x 885 km, 81.2° (Epoch: 09 September)

Event Time Altitude Azimuth Distance (km) Brightness Sun altitude
Rises 22:31:52 0° 359° (N) 3,418 8.6 -26.0°
Reaches altitude 10° 22:35:17 10° 21° (NNE) 2,480 7.3 -26.1°
Maximum altitude 22:38:43 16° 59° (ENE) 2,065 6.4 -26.2°
Enters shadow 22:41:16 13° 89° (E) 2,300 6.4 -26.3°
